GW6235 Weather Reports


time (UTC)temp
C
wind
direction
speed
KPH
gust
KPH
rain 1hr
cm
rain 24hr
cm
rain mn
cm
humidity
%
barometer
mb
20260505083937 11 182 0.0 0.0 0.00 0.00 0.00 96 1017.5
20260505083434 11 170 0.0 0.0 0.00 0.00 0.00 96 1017.6
20260505082930 11 190 0.0 0.0 0.00 0.00 0.00 95 1017.5
20260505082426 11 173 0.0 0.0 0.00 0.00 0.00 95 1017.8
20260505081923 11 176 0.0 0.0 0.00 0.00 0.00 95 1017.7
20260505081420 11 223 0.0 0.0 0.00 0.00 0.00 95 1017.7
20260505080917 11 193 0.0 0.0 0.00 0.00 0.00 95 1017.4
20260505080413 11 204 0.0 0.0 0.00 0.00 0.00 95 1017.8
20260505075908 11 217 0.0 0.0 0.00 0.00 0.00 94 1017.6
20260505075405 11 217 0.0 0.0 0.00 0.00 0.00 94 1017.7
20260505074903 11 208 0.0 0.0 0.00 0.00 0.00 93 1017.5
20260505074400 11 188 0.0 0.0 0.00 0.00 0.00 92 1017.5
20260505073857 12 175 0.0 0.0 0.00 0.00 0.00 92 1017.7
20260505073355 12 162 0.0 0.0 0.00 0.00 0.00 91 1017.6
20260505072852 12 226 0.0 0.0 0.00 0.00 0.00 90 1017.6
20260505072348 12 235 0.0 0.0 0.00 0.00 0.00 90 1017.6
20260505071844 12 235 0.0 0.0 0.00 0.00 0.00 89 1017.5
20260505071340 12 252 0.0 0.0 0.00 0.00 0.00 89 1017.5
20260505070839 12 245 0.0 0.0 0.00 0.00 0.00 89 1017.5
20260505070335 12 245 0.0 0.0 0.00 0.00 0.00 88 1017.5
20260505065830 13 175 0.0 0.0 0.00 0.00 0.00 88 1017.6
20260505065327 13 231 0.0 0.0 0.00 0.00 0.00 87 1017.5
20260505064824 13 189 0.0 0.0 0.00 0.00 0.00 87 1017.6
20260505064321 13 192 0.0 0.0 0.00 0.00 0.00 86 1017.7
20260505063819 13 207 0.0 0.0 0.00 0.00 0.00 86 1017.7
20260505063315 13 189 1.6 1.6 0.00 0.00 0.00 86 1017.8
20260505062812 13 135 0.0 0.0 0.00 0.00 0.00 85 1017.8
20260505062309 14 163 1.6 1.6 0.00 0.00 0.00 84 1017.9
20260505061806 14 167 1.6 1.6 0.00 0.00 0.00 83 1017.5
20260505061304 14 147 1.6 3.2 0.00 0.00 0.00 83 1017.7
20260505060801 14 138 1.6 3.2 0.00 0.00 0.00 82 1017.8
20260505060258 14 166 3.2 3.2 0.00 0.00 0.00 82 1017.7
20260505055753 14 175 1.6 1.6 0.00 0.00 0.00 82 1017.7
20260505055250 14 118 3.2 3.2 0.00 0.00 0.00 82 1017.6
20260505054747 14 126 3.2 4.8 0.00 0.00 0.00 81 1017.9
20260505054245 14 117 1.6 3.2 0.00 0.00 0.00 81 1017.7
20260505053743 14 160 6.4 9.7 0.00 0.00 0.00 81 1017.9
20260505053239 14 129 1.6 3.2 0.00 0.00 0.00 81 1017.9
20260505052737 13 146 1.6 1.6 0.00 0.00 0.00 81 1017.7
20260505052233 13 112 3.2 3.2 0.00 0.00 0.00 83 1017.7
20260505051730 12 84 1.6 1.6 0.00 0.00 0.00 87 1017.7
20260505051228 12 156 0.0 1.6 0.00 0.00 0.00 91 1017.6
20260505050726 11 124 6.4 6.4 0.00 0.00 0.00 91 1017.7
20260505050224 12 217 0.0 0.0 0.00 0.00 0.00 90 1017.4
20260505041654 12 196 0.0 0.0 0.00 0.00 0.00 87 1017.6
20260505041151 12 155 1.6 1.6 0.00 0.00 0.00 87 1017.7
20260505040648 12 208 0.0 0.0 0.00 0.00 0.00 86 1017.8
20260505040145 13 144 1.6 1.6 0.00 0.00 0.00 85 1017.8
20260505035642 13 233 0.0 0.0 0.00 0.00 0.00 85 1018.0
20260505035138 13 269 0.0 0.0 0.00 0.00 0.00 85 1017.9
20260505034635 13 199 0.0 0.0 0.00 0.00 0.00 85 1018.1
20260505034132 13 232 0.0 0.0 0.00 0.00 0.00 83 1018.0
20260505033628 13 247 0.0 0.0 0.00 0.00 0.00 82 1017.9
20260505033127 13 187 0.0 0.0 0.00 0.00 0.00 81 1017.9
20260505032624 13 239 1.6 1.6 0.00 0.00 0.00 81 1017.9
20260505032120 13 120 0.0 1.6 0.00 0.00 0.00 80 1017.9
20260505031618 13 239 0.0 0.0 0.00 0.00 0.00 81 1018.0
20260505031114 13 218 0.0 0.0 0.00 0.00 0.00 81 1018.2
20260505030611 13 219 0.0 0.0 0.00 0.00 0.00 79 1018.0
20260505030107 13 195 0.0 0.0 0.00 0.00 0.00 78 1018.0
20260505025603 14 195 0.0 0.0 0.00 0.00 0.00 77 1018.1
20260505025102 14 201 0.0 0.0 0.00 0.00 0.00 75 1018.2
20260505024558 14 198 0.0 0.0 0.00 0.00 0.00 75 1018.1
20260505024056 14 198 0.0 0.0 0.00 0.00 0.00 74 1018.0
20260505023553 15 198 0.0 0.0 0.00 0.00 0.00 72 1017.9
20260505023051 15 187 0.0 0.0 0.00 0.00 0.00 71 1017.9
20260505022548 15 195 0.0 0.0 0.00 0.00 0.00 71 1017.7
20260505022045 15 200 0.0 0.0 0.00 0.00 0.00 71 1017.8
20260505021541 15 210 0.0 0.0 0.00 0.00 0.00 71 1017.8
20260505021038 15 217 0.0 0.0 0.00 0.00 0.00 70 1018.0
20260505020538 15 229 0.0 0.0 0.00 0.00 0.00 68 1017.9
20260505020036 16 191 0.0 0.0 0.00 0.00 0.00 68 1017.7
20260505015533 16 191 0.0 0.0 0.00 0.00 0.00 68 1017.7
20260505015029 16 218 0.0 0.0 0.00 0.00 0.00 70 1017.5
20260505014526 16 236 0.0 0.0 0.00 0.00 0.00 67 1017.8
20260505014024 16 220 0.0 0.0 0.00 0.00 0.00 66 1017.6
20260505013521 16 219 0.0 0.0 0.00 0.00 0.00 63 1017.5
20260505013018 16 195 0.0 0.0 0.00 0.00 0.00 63 1017.5
20260505012516 17 209 0.0 0.0 0.00 0.00 0.00 62 1017.5
20260505012013 17 198 0.0 0.0 0.00 0.00 0.00 60 1017.4
20260505011508 17 197 0.0 0.0 0.00 0.00 0.00 60 1017.2
20260505011005 17 198 0.0 0.0 0.00 0.00 0.00 59 1017.4
20260505010501 18 193 0.0 0.0 0.00 0.00 0.00 57 1017.3
20260505005957 18 193 0.0 0.0 0.00 0.00 0.00 57 1017.1
20260505005454 18 193 0.0 0.0 0.00 0.00 0.00 57 1017.1
20260505004952 18 188 0.0 0.0 0.00 0.00 0.00 55 1017.0
20260505004448 19 164 1.6 1.6 0.00 0.00 0.00 53 1017.0
20260505003945 19 209 0.0 0.0 0.00 0.00 0.00 52 1017.2
20260505003442 20 204 0.0 0.0 0.00 0.00 0.00 51 1017.1
20260505002938 20 177 0.0 0.0 0.00 0.00 0.00 52 1016.8
20260505002435 20 208 0.0 0.0 0.00 0.00 0.00 49 1017.0
20260505001933 21 208 0.0 0.0 0.00 0.00 0.00 46 1016.9
20260505001431 21 196 0.0 0.0 0.00 0.00 0.00 45 1016.8
20260505000927 22 178 0.0 0.0 0.00 0.00 0.00 44 1016.6
20260505000428 22 193 0.0 0.0 0.00 0.00 0.00 41 1016.8
20260504235922 22 211 0.0 0.0 0.00 0.00 0.00 38 1016.9
20260504235420 23 208 0.0 0.0 0.00 0.00 0.00 37 1017.0
20260504234915 23 249 1.6 1.6 0.00 0.00 0.00 37 1017.1
20260504234413 23 170 0.0 0.0 0.00 0.00 0.00 36 1016.9
20260504233909 24 280 0.0 0.0 0.00 0.00 0.00 35 1017.2
20260504233405 24 213 0.0 1.6 0.00 0.00 0.00 35 1017.0
20260504232902 25 303 0.0 1.6 0.00 0.00 0.00 35 1016.9
20260504232359 25 237 0.0 0.0 0.00 0.00 0.00 34 1016.9
20260504231856 25 231 1.6 3.2 0.00 0.00 0.00 34 1016.9
20260504231352 25 216 3.2 4.8 0.00 0.00 0.00 32 1017.0
20260504230849 25 235 1.6 3.2 0.00 0.00 0.00 33 1016.9
20260504230346 25 188 4.8 6.4 0.00 0.00 0.00 32 1016.9
20260504225845 26 241 0.0 1.6 0.00 0.00 0.00 34 1016.9
20260504225341 26 214 1.6 3.2 0.00 0.00 0.00 32 1016.8
20260504224839 26 239 0.0 1.6 0.00 0.00 0.00 33 1016.8
20260504224335 25 214 0.0 0.0 0.00 0.00 0.00 33 1016.7
20260504223832 25 131 1.6 1.6 0.00 0.00 0.00 31 1016.7
20260504223327 25 247 3.2 3.2 0.00 0.00 0.00 29 1016.9
20260504222824 25 207 0.0 0.0 0.00 0.00 0.00 30 1016.8
20260504222321 25 182 1.6 1.6 0.00 0.00 0.00 30 1016.8
20260504221820 26 235 1.6 1.6 0.00 0.00 0.00 29 1016.7
20260504221316 25 245 3.2 4.8 0.00 0.00 0.00 27 1016.9
20260504220813 26 239 1.6 1.6 0.00 0.00 0.00 26 1016.9
20260504220310 26 244 0.0 1.6 0.00 0.00 0.00 29 1016.9
20260504215807 26 178 6.4 9.7 0.00 0.00 0.00 26 1017.0
20260504215304 26 266 6.4 6.4 0.00 0.00 0.00 26 1017.0
20260504214759 26 238 3.2 3.2 0.00 0.00 0.00 28 1016.9
20260504214256 25 176 1.6 3.2 0.00 0.00 0.00 29 1016.8
20260504213753 25 148 3.2 3.2 0.00 0.00 0.00 30 1017.0
20260504213249 25 196 6.4 9.7 0.00 0.00 0.00 31 1016.8
20260504212746 25 115 1.6 3.2 0.00 0.00 0.00 33 1016.9
20260504212243 25 117 9.7 12.9 0.00 0.00 0.00 31 1016.9
20260504211740 25 119 6.4 6.4 0.00 0.00 0.00 33 1017.0
20260504211236 25 105 3.2 3.2 0.00 0.00 0.00 33 1016.9
20260504210734 25 157 3.2 3.2 0.00 0.00 0.00 32 1017.0
20260504210231 25 225 0.0 1.6 0.00 0.00 0.00 35 1017.0
20260504205728 25 113 4.8 4.8 0.00 0.00 0.00 33 1017.0
20260504205226 26 131 6.4 6.4 0.00 0.00 0.00 32 1017.0
20260504204723 26 260 4.8 4.8 0.00 0.00 0.00 32 1016.9
20260504204222 26 231 0.0 0.0 0.00 0.00 0.00 35 1017.0
20260504203721 26 173 4.8 6.4 0.00 0.00 0.00 34 1017.0
20260504203218 25 227 4.8 4.8 0.00 0.00 0.00 33 1017.2
20260504202717 25 186 4.8 6.4 0.00 0.00 0.00 33 1017.1
20260504202215 25 224 0.0 0.0 0.00 0.00 0.00 33 1017.2
20260504201712 25 83 1.6 4.8 0.00 0.00 0.00 33 1017.4
20260504201209 26 265 3.2 3.2 0.00 0.00 0.00 32 1017.3
20260504200707 25 240 1.6 1.6 0.00 0.00 0.00 31 1017.6
20260504200203 26 109 4.8 6.4 0.00 0.00 0.00 33 1017.4
20260504195659 25 171 4.8 4.8 0.00 0.00 0.00 33 1017.4
20260504195155 25 121 3.2 4.8 0.00 0.00 0.00 33 1017.5
20260504194652 25 299 0.0 0.0 0.00 0.00 0.00 33 1017.9
20260504194148 25 274 3.2 4.8 0.00 0.00 0.00 31 1018.0
20260504193644 25 99 6.4 6.4 0.00 0.00 0.00 31 1018.0
20260504193143 25 175 3.2 3.2 0.00 0.00 0.00 32 1017.9
20260504192640 25 120 3.2 4.8 0.00 0.00 0.00 35 1017.8
20260504192138 25 237 3.2 3.2 0.00 0.00 0.00 34 1018.3
20260504191636 25 231 8.0 11.3 0.00 0.00 0.00 34 1018.2
20260504191132 26 150 3.2 4.8 0.00 0.00 0.00 33 1018.3
20260504190628 25 225 4.8 4.8 0.00 0.00 0.00 33 1018.3
20260504190125 24 233 0.0 0.0 0.00 0.00 0.00 33 1018.4
20260504185621 25 104 4.8 4.8 0.00 0.00 0.00 31 1018.6
20260504185118 25 254 3.2 3.2 0.00 0.00 0.00 33 1018.7
20260504184614 25 288 3.2 4.8 0.00 0.00 0.00 31 1018.6
20260504184109 24 346 1.6 3.2 0.00 0.00 0.00 32 1018.7
20260504183607 24 103 3.2 4.8 0.00 0.00 0.00 33 1018.9
20260504183104 24 225 0.0 1.6 0.00 0.00 0.00 33 1018.9
20260504182601 23 209 0.0 1.6 0.00 0.00 0.00 31 1018.8
20260504182059 24 143 1.6 3.2 0.00 0.00 0.00 32 1018.8
20260504181556 25 121 9.7 12.9 0.00 0.00 0.00 32 1018.7
20260504181054 25 211 0.0 0.0 0.00 0.00 0.00 39 1019.0
20260504180553 24 254 3.2 4.8 0.00 0.00 0.00 35 1018.9
20260504180051 23 186 8.0 9.7 0.00 0.00 0.00 35 1018.9
20260504175548 23 129 6.4 6.4 0.00 0.00 0.00 34 1019.1
20260504175045 23 93 1.6 3.2 0.00 0.00 0.00 35 1019.4
20260504174543 23 92 3.2 3.2 0.00 0.00 0.00 37 1019.1
20260504174039 24 307 3.2 4.8 0.00 0.00 0.00 38 1019.2
20260504173536 23 230 0.0 0.0 0.00 0.00 0.00 37 1019.4
20260504173033 23 253 3.2 3.2 0.00 0.00 0.00 39 1019.4
20260504172529 24 250 4.8 4.8 0.00 0.00 0.00 36 1019.5
20260504172026 23 116 1.6 1.6 0.00 0.00 0.00 37 1019.3
20260504171523 23 175 4.8 4.8 0.00 0.00 0.00 36 1019.4
20260504171020 23 137 8.0 11.3 0.00 0.00 0.00 38 1019.4
20260504170515 23 220 0.0 0.0 0.00 0.00 0.00 42 1019.4
20260504160436 21 134 1.6 1.6 0.00 0.00 0.00 43 1020.3
20260504150906 21 241 1.6 1.6 0.00 0.00 0.00 37 1020.9
20260504150402 21 284 6.4 6.4 0.00 0.00 0.00 35 1021.0
20260504141332 20 170 4.8 4.8 0.00 0.00 0.00 58 1021.1
20260504140829 20 162 0.0 0.0 0.00 0.00 0.00 60 1021.2
20260504140324 18 162 1.6 1.6 0.00 0.00 0.00 62 1021.2
20260504130753 15 223 1.6 1.6 0.00 0.00 0.00 80 1021.0
20260504130249 14 227 0.0 0.0 0.00 0.00 0.00 82 1021.0
20260504120213 8 239 1.6 1.6 0.00 0.00 0.00 99 1020.7
20260504110640 7 206 0.0 0.0 0.00 0.00 0.00 99 1020.3
20260504110137 7 223 0.0 0.0 0.00 0.00 0.00 99 1020.4